Regional Weather Roundup
Issued by NWS

Home | Current Version | Previous Version | Text Only | Print | Product List | Glossary Off
Versions: 1 2 3 4 5 6 7 8 9 10 11 12 13 14 15 16 17 18 19 20 21 22 23 24 25 26 27 28 29 30 31 32 33 34 35 36 37 38 39 40 41 42 43 44 45 46 47 48 49 50

000
ASUS45 KCYS 200510
RWRWY

WYOMING REGIONAL WEATHER ROUNDUP
NATIONAL WEATHER SERVICE CHEYENNE WY
1000 PM MST FRI JAN 19 2018

NOTE:  "FAIR" INDICATES FEW OR NO CLOUDS BELOW 12,000 FEET
WITH NO SIGNIFICANT WEATHER AND/OR OBSTRUCTIONS TO VISIBILITY.

WYZ001-200600-
YELLOWSTONE NATIONAL PARK

CITY           SKY/WX    TMP DP  RH WIND       PRES   REMARKS
LK YELLOWSTONE   N/A     20  16  84 W6        29.81R WCI  12
W YELLOWSTONE  NOT AVBL

$$
WYZ002>013-054>058-071-098>099-200600-
NORTHERN WYOMING

CITY           SKY/WX    TMP DP  RH WIND       PRES   REMARKS
JACKSON        CLOUDY    26  19  74 S10       29.83S WCI  16
CODY           MIX PCPN  30  28  93 N7        29.82R WCI  23
GREYBULL       CLOUDY    34  30  85 NW15      29.79R WCI  24
WORLAND        LGT SNOW  32  32 100 W7        29.80R FOG     WCI  26
SHERIDAN       CLOUDY    34  33  96 W9        29.82R WCI  27
BUFFALO        CLOUDY    32  28  85 N20G26    29.78S WCI  20
GILLETTE       MIX PCPN  34  33  96 NW5       29.77R WCI  30
HULETT         CLOUDY    36  32  87 CALM      29.78R
NEWCASTLE      FAIR      32  30  93 CALM      29.78R

$$
WYZ014>020-022>026-101>103-200600-
CENTRAL WYOMING

CITY           SKY/WX    TMP DP  RH WIND       PRES   REMARKS
BIG PINEY      CLOUDY    26  18  71 N6        29.83F WCI  19
PINEDALE       CLOUDY    27  19  74 NW12      29.82F WCI  16
DUBOIS         CLOUDY    28  14  54 N3        29.77F
LANDER         CLOUDY    35  27  72 E7        29.75R WCI  29
RIVERTON       CLOUDY    36  20  52 NW16      29.76R WCI  26
CASPER         CLOUDY    34  30  85 N10       29.75R WCI  26
DOUGLAS        FAIR      31  27  85 CALM      29.73R

$$
WYZ021-027>030-104>119-200600-
SOUTHERN WYOMING

CITY           SKY/WX    TMP DP  RH WIND       PRES   REMARKS
EVANSTON       FOG       24  23  96 N8        29.88S VSB 1   WCI  15
ROCK SPRINGS   LGT SNOW  30  26  85 NW13      29.83R FOG     WCI  20
DIXON            N/A     39  22  48 S8        29.85S WCI  34
RAWLINS        FAIR      36  21  54 W15       29.78R WCI  27
SARATOGA       FAIR      41  21  45 SW23G29   29.78F
LARAMIE        FAIR      37  20  50 SW14      29.79R WCI  28
CHEYENNE       FAIR      41  18  39 W3        29.78R
TORRINGTON     FAIR      34  28  79 SE6       29.74R WCI  29

$$



USA.gov is the U.S. government's official web portal to all federal, state and local government web resources and services.